This is the latest recevied weather packets stored in our database for station/object 4S6DRJ-13. If no packets are shown the sender has not sent any weather packets the latest 10 day(s).
| Time | Temp. | Humidity | Pressure | Rain* | Wind** | Luminosity | Snow |
|---|---|---|---|---|---|---|---|
| 1787988706 | 30.56° C | 76% | 1009.3 hPa | 0 mm | 1.34 m/s, 263° | 467 W/m² | - |
| 1787988645 | 30° C | 77% | 1009.4 hPa | 0 mm | 1.79 m/s, 313° | 1123 W/m² | - |
| 1787988585 | 30° C | 77% | 1009.4 hPa | 0 mm | 1.79 m/s, 240° | 1129 W/m² | - |
| 1787988523 | 30° C | 77% | 1009.5 hPa | 0 mm | 1.34 m/s, 245° | 954 W/m² | - |
| 1787988462 | 30° C | 77% | 1009.5 hPa | 0 mm | 2.68 m/s, 100° | 658 W/m² | - |
| 1787988401 | 30° C | 77% | 1009.5 hPa | 0 mm | 1.34 m/s, 289° | 528 W/m² | - |
| 1787988340 | 30° C | 77% | 1009.5 hPa | 0 mm | 3.58 m/s, 246° | 830 W/m² | - |
| 1787988279 | 30° C | 76% | 1009.7 hPa | 0 mm | 3.13 m/s, 187° | 590 W/m² | - |
| 1787988218 | 30° C | 76% | 1009.6 hPa | 0 mm | 2.24 m/s, 291° | 398 W/m² | - |
| 1787988157 | 30° C | 76% | 1009.5 hPa | 0 mm | 0.89 m/s, 336° | 673 W/m² | - |
| 1787988096 | 30° C | 76% | 1009.8 hPa | 0 mm | 4.47 m/s, 305° | 296 W/m² | - |
| 1787988036 | 30° C | 76% | 1009.7 hPa | 0 mm | 1.34 m/s, 261° | 311 W/m² | - |
| 1787987976 | 30° C | 76% | 1009.6 hPa | 0 mm | 2.68 m/s, 223° | 493 W/m² | - |
| 1787987914 | 30° C | 76% | 1009.6 hPa | 0 mm | 3.58 m/s, 272° | 559 W/m² | - |
| 1787987853 | 30.56° C | 75% | 1009.8 hPa | 0 mm | 2.68 m/s, 302° | 418 W/m² | - |
| 1787987792 | 30.56° C | 74% | 1009.7 hPa | 0 mm | 2.68 m/s, 314° | 517 W/m² | - |
| 1787987731 | 30.56° C | 74% | 1009.9 hPa | 0 mm | 1.34 m/s, 124° | 365 W/m² | - |
| 1787987670 | 30.56° C | 74% | 1009.9 hPa | 0 mm | 4.02 m/s, 242° | 506 W/m² | - |
| 1787987609 | 30.56° C | 75% | 1009.8 hPa | 0 mm | 3.58 m/s, 4° | 273 W/m² | - |
| 1787987548 | 30.56° C | 75% | 1009.7 hPa | 0 mm | 2.24 m/s, 346° | 501 W/m² | - |
| 1787987487 | 30.56° C | 75% | 1009.9 hPa | 0 mm | 1.34 m/s, 316° | 341 W/m² | - |
| 1787987426 | 30.56° C | 74% | 1009.8 hPa | 0 mm | 2.24 m/s, 154° | 512 W/m² | - |
| 1787987365 | 30.56° C | 75% | 1009.9 hPa | 0 mm | 2.68 m/s, 115° | 785 W/m² | - |
| 1787987304 | 30.56° C | 75% | 1009.8 hPa | 0 mm | 2.24 m/s, 305° | 543 W/m² | - |
| 1787987243 | 30.56° C | 75% | 1009.8 hPa | 0 mm | 1.79 m/s, 223° | 478 W/m² | - |
* Rain latest hour (hover to see other rain measurements)
** Current wind speed in m/s (hover to see current wind gust speed)